Regional Weather Roundup
Issued by NWS Little Rock, AR

Home | Current Version | Previous Version | Graphics & Text | Print | Product List | Glossary On
Versions: 1 2 3 4 5 6 7 8 9 10 11 12 13 14 15 16 17 18 19 20 21 22 23 24 25 26 27 28 29 30 31 32 33 34 35 36 37 38 39 40 41 42 43 44 45 46 47 48 49 50
000
ASUS44 KLZK 040405
RWRLZK

WEATHER ROUNDUP FOR ARKANSAS
NATIONAL WEATHER SERVICE LITTLE ROCK AR
1100 PM CDT MON AUG 03 2015

NOTE: "FAIR" INDICATES FEW OR NO CLOUDS BELOW 12,000 FEET WITH NO
SIGNIFICANT WEATHER AND/OR OBSTRUCTIONS TO VISIBILITY.

ARZ001-003-010-029-040500-
NORTHWEST ARKANSAS

CITY           SKY/WX    TMP DP  RH WIND       PRES   REMARKS
FAYETTEVILLE   CLEAR     72  70  93 CALM      29.99R
FORT SMITH     PTCLDY    82  72  71 NE3       29.93R HX  87
HARRISON       CLEAR     76  67  73 W3        30.00S
BENTONVILLE    CLEAR     73  66  78 SW3       29.99S
ROGERS         CLEAR     75  70  84 SE6       29.99F
SILOAM SPGS    CLEAR     73  64  73 CALM      29.98S
HIGHFILL       CLEAR     73  70  90 CALM      29.98S
$$

ARZ004-005-016-040500-
NORTH CENTRAL ARKANSAS

CITY           SKY/WX    TMP DP  RH WIND       PRES   REMARKS
BATESVILLE     MOCLDY    79  73  83 CALM      29.94S
FLIPPIN        PTCLDY    77  72  83 CALM      29.95R
MTN HOME       PTCLDY    78  69  73 CALM      29.96S
$$

ARZ040-041-040500-
WEST CENTRAL ARKANSAS

CITY           SKY/WX    TMP DP  RH WIND       PRES   REMARKS
MENA           PTCLDY    77  68  73 CALM      29.98R
MOUNT IDA      MOCLDY    75  66  73 CALM      29.94R
$$

ARZ009-017-025-026-028-040500-
NORTHEAST ARKANSAS

CITY           SKY/WX    TMP DP  RH WIND       PRES   REMARKS
JONESBORO      PTCLDY    78  71  79 SW6       29.93R
NEWPORT        MOCLDY    82  73  74 SW6       29.94S HX  87
WALNUT RIDGE   PTCLDY    81  70  69 SW5       29.93S
BLYTHEVILLE    PTCLDY    81  74  79 CALM      29.93S HX  86
$$

ARZ022-023-033-042-044-040500-
CENTRAL ARKANSAS

CITY           SKY/WX    TMP DP  RH WIND       PRES   REMARKS
LITTLE ROCK    MOCLDY    82  71  69 CALM      29.94R HX  86
N LITTLE ROCK  MOCLDY    83  69  61 S5        29.94R HX  87
JACKSONVILLE   PTCLDY    77  70  78 NE1       29.93S
SEARCY         MOCLDY    77  73  87 CALM      29.95S
HOT SPRINGS    PTCLDY    81  66  60 E3        29.95R
RUSSELLVILLE   PTCLDY    75  71  87 CALM      29.94R
$$

ARZ036-040500-
EAST ARKANSAS

CITY           SKY/WX    TMP DP  RH WIND       PRES   REMARKS
WEST MEMPHIS   MOCLDY    77  74  90 CALM      29.93R
$$

ARZ050-053-066-070-073-040500-
SOUTHWEST ARKANSAS

CITY           SKY/WX    TMP DP  RH WIND       PRES   REMARKS
ARKADELPHIA    FAIR      75  72  91 CALM      29.93R
CAMDEN         CLEAR     75  68  78 CALM      29.92R
TEXARKANA      PTCLDY    82  65  56 E3        29.92R
EL DORADO      CLEAR     76  67  73 CALM      29.93R
DE QUEEN       MOCLDY    77  71  82 CALM      29.91R
$$

ARZ056-057-069-040500-
SOUTHEAST ARKANSAS

CITY           SKY/WX    TMP DP  RH WIND       PRES   REMARKS
PINE BLUFF     CLEAR     75  70  84 CALM      29.94R
STUTTGART      PTCLDY    82  72  69 CALM      29.94S HX  87
MONTICELLO     CLEAR     76  72  87 CALM      29.93R

$$




USA.gov is the U.S. government's official web portal to all federal, state and local government web resources and services.